This demonstration page uses our WeatherBlox Daily Observations layout. Learn more.

Left ArrowRight Arrow

34.16533, -84.80231

Hourly Observations for October 15, 2021

Temp ( °F °C ) Dew Point ( °F °C ) Humidity (%) Winds ( mph kmh ) Pressure ( in mb ) Visibility ( mi km ) Precip ( " mm )
12:15 am 00:15 Cloudy 66 19 66 19 100 100 N N/A 30.00 1016 8 13 N/A
12:35 am 00:35 Cloudy with Mist and Fog 66 19 66 19 100 100 N N/A 30.00 1016 6 10 N/A
12:55 am 00:55 Cloudy with Mist and Fog 66 19 66 19 100 100 N N/A 30.00 1016 6 10 N/A
1:15 am 01:15 Mostly Cloudy 66 19 66 19 100 100 N N/A 30.00 1016 7 11 N/A
1:35 am 01:35 Mostly Cloudy 66 19 66 19 100 100 N N/A 30.00 1016 8 13 N/A
1:55 am 01:55 Mostly Cloudy with Mist and Fog 66 19 64 18 94 94 N N/A 30.00 1016 5 8 N/A
2:15 am 02:15 Mostly Cloudy with Mist and Fog 64 18 64 18 100 100 N N/A 30.00 1016 2 2 N/A
2:35 am 02:35 Mostly Clear 64 18 64 18 100 100 N N/A 30.00 1016 7 11 N/A
2:55 am 02:55 Clear 64 18 64 18 100 100 N N/A 29.99 1015 7 11 N/A
3:15 am 03:15 Partly Cloudy with Mist and Fog 64 18 63 17 94 94 N N/A 29.99 1015 1 2 N/A
3:35 am 03:35 Mostly Cloudy with Fog 63 17 63 17 100 100 N N/A 29.99 1016 1 1 N/A
3:55 am 03:55 Clear with Mist and Fog 63 17 63 17 100 100 N N/A 29.99 1016 5 8 N/A
4:15 am 04:15 Clear with Mist and Fog 63 17 63 17 100 100 N N/A 29.98 1015 1 2 N/A
4:35 am 04:35 Clear with Mist and Fog 63 17 63 17 100 100 N N/A 29.98 1015 4 6 N/A
4:55 am 04:55 Clear with Mist and Fog 63 17 63 17 100 100 N N/A 29.98 1015 2 2 N/A
5:15 am 05:15 Mostly Cloudy with Fog 63 17 63 17 100 100 N N/A 29.98 1015 0 0 N/A
5:35 am 05:35 Partly Cloudy with Mist and Fog 63 17 63 17 100 100 N N/A 29.98 1015 1 2 N/A
5:55 am 05:55 Mostly Clear with Mist and Fog 61 16 61 16 100 100 N N/A 29.98 1015 3 5 N/A
6:15 am 06:15 Mostly Cloudy with Fog 61 16 61 16 100 100 N N/A 29.99 1016 0 0 N/A
6:35 am 06:35 Mostly Cloudy with Fog 61 16 61 16 100 100 N N/A 29.99 1016 0 0 N/A
6:55 am 06:55 Mostly Cloudy with Fog 61 16 61 16 100 100 N N/A 29.99 1016 0 0 N/A
7:15 am 07:15 Partly Cloudy with Fog 61 16 61 16 100 100 N N/A 29.99 1016 0 0 N/A
7:35 am 07:35 Cloudy with Fog 61 16 61 16 100 100 N N/A 29.99 1016 0 0 N/A
7:55 am 07:55 Cloudy with Fog 61 16 61 16 100 100 N N/A 30.00 1016 N/A N/A
8:15 am 08:15 Cloudy with Fog 61 16 61 16 100 100 N N/A 30.00 1016 N/A N/A
8:35 am 08:35 Cloudy with Fog 61 16 61 16 100 100 N N/A 30.00 1016 N/A N/A
8:55 am 08:55 Mostly Cloudy with Fog 63 17 63 17 100 100 N N/A 30.01 1016 0 0 N/A
9:15 am 09:15 Cloudy with Fog 63 17 63 17 100 100 N N/A 30.02 1017 0 0 N/A
9:35 am 09:35 Cloudy with Fog 64 18 64 18 100 100 N N/A 30.02 1017 0 0 N/A
9:55 am 09:55 Cloudy with Mist and Fog 64 18 64 18 100 100 N N/A 30.03 1017 1 2 N/A
10:15 am 10:15 Mostly Cloudy with Mist and Fog 66 19 66 19 100 100 N N/A 30.03 1017 4 6 N/A
10:35 am 10:35 Mostly Sunny 68 20 68 20 100 100 N N/A 30.03 1017 7 11 N/A
10:55 am 10:55 Sunny 72 22 68 20 88 88 N N/A 30.02 1016 8 13 N/A
11:15 am 11:15 Sunny 75 24 66 19 74 74 N N/A 30.01 1016 9 14 N/A
11:35 am 11:35 Sunny 75 24 66 19 74 74 N N/A 30.01 1016 10 16 N/A
11:55 am 11:55 Sunny 77 25 66 19 69 69 N N/A 30.00 1016 9 14 N/A
12:15 pm 12:15 Sunny 79 26 66 19 65 65 W 5 7 30.00 1016 10 16 N/A
12:35 pm 12:35 Sunny 79 26 66 19 65 65 N N/A 30.00 1016 10 16 N/A
12:55 pm 12:55 Sunny 79 26 66 19 65 65 N N/A 29.99 1015 10 16 N/A
1:15 pm 13:15 Sunny 81 27 64 18 58 58 N N/A 29.97 1015 10 16 N/A
1:35 pm 13:35 Sunny 81 27 66 19 62 62 N N/A 29.97 1015 10 16 N/A
1:55 pm 13:55 Mostly Sunny 81 27 66 19 62 62 N N/A 29.96 1015 10 16 N/A
2:15 pm 14:15 Mostly Sunny 81 27 64 18 58 58 N N/A 29.94 1014 10 16 N/A
2:35 pm 14:35 Partly Cloudy 82 28 66 19 58 58 N N/A 29.93 1014 10 16 N/A
2:55 pm 14:55 Mostly Sunny 82 28 66 19 58 58 N N/A 29.93 1014 9 14 N/A
3:15 pm 15:15 Sunny 81 27 64 18 58 58 N N/A 29.92 1013 10 16 N/A
3:35 pm 15:35 Sunny 84 29 66 19 55 55 N N/A 29.92 1013 10 16 N/A
3:55 pm 15:55 Mostly Sunny 84 29 64 18 51 51 N N/A 29.91 1013 10 16 N/A
4:15 pm 16:15 Mostly Sunny 84 29 64 18 51 51 N N/A 29.91 1013 10 16 N/A
4:35 pm 16:35 Sunny 82 28 64 18 55 55 N N/A 29.91 1013 10 16 N/A
4:55 pm 16:55 Sunny 82 28 66 19 58 58 N N/A 29.91 1013 10 16 N/A
5:15 pm 17:15 Mostly Sunny 82 28 64 18 55 55 N N/A 29.90 1013 10 16 N/A
5:35 pm 17:35 Mostly Sunny 81 27 64 18 58 58 N N/A 29.90 1013 10 16 N/A
5:55 pm 17:55 Mostly Sunny 82 28 64 18 55 55 N N/A 29.90 1013 10 16 N/A
6:15 pm 18:15 Sunny 82 28 66 19 58 58 N N/A 29.90 1013 10 16 N/A
6:35 pm 18:35 Sunny 81 27 68 20 66 66 N N/A 29.90 1013 10 16 N/A
6:55 pm 18:55 Sunny 79 26 68 20 70 70 N N/A 29.91 1013 10 16 N/A
7:15 pm 19:15 Clear 77 25 68 20 74 74 N N/A 29.91 1013 10 16 N/A
7:35 pm 19:35 Clear 75 24 68 20 78 78 N N/A 29.91 1013 10 16 N/A
7:55 pm 19:55 Clear 73 23 68 20 83 83 N N/A 29.91 1013 10 16 N/A
8:15 pm 20:15 Clear 72 22 68 20 88 88 N N/A 29.92 1013 10 16 N/A
8:35 pm 20:35 Clear 72 22 68 20 88 88 N N/A 29.92 1013 10 16 N/A
8:55 pm 20:55 Mostly Clear 72 22 68 20 88 88 N N/A 29.92 1013 10 16 N/A
9:15 pm 21:15 Mostly Clear 70 21 68 20 94 94 N N/A 29.92 1013 9 14 N/A
9:35 pm 21:35 Partly Cloudy 72 22 68 20 88 88 N N/A 29.92 1013 10 16 N/A
9:55 pm 21:55 Mostly Clear 72 22 66 19 83 83 N N/A 29.92 1013 9 14 N/A
10:15 pm 22:15 Clear 70 21 68 20 94 94 N N/A 29.92 1013 9 14 N/A
10:35 pm 22:35 Clear 70 21 66 19 88 88 N N/A 29.92 1013 9 14 N/A
10:55 pm 22:55 Clear 72 22 66 19 83 83 N N/A 29.92 1013 10 16 N/A
11:15 pm 23:15 Clear 70 21 66 19 88 88 N N/A 29.92 1013 9 14 N/A
11:35 pm 23:35 Clear 70 21 66 19 88 88 N N/A 29.92 1013 10 16 N/A
11:55 pm 23:55 Clear 68 20 66 19 94 94 N N/A 29.92 1013 9 14 N/A

Powered by AerisWeather